GFSFLT2_sfc_thetae_324.txt.gz
Theta_e
321 320 315 309 305 311 302 294 299 303 308 318 322 317 320 325 326 321 324 334 338 341 341 339 342 343 342 338 335 335 336 336
314 317 317 311 312 300 295 288 286 296 301 302 313 314 317 316 329 332 333 334 335 334 333 333 334 335 335 334 333 333 334 332
302 304 301 299 304 300 296 292 289 288 297 314 315 313 314 325 329 330 331 332 333 332 332 333 333 332 331 331 330 330 329 331
296 302 304 301 298 294 291 291 290 291 302 317 315 314 324 323 324 328 330 330 332 333 332 331 332 332 333 334 331 330 328 328
293 297 298 298 298 296 294 291 290 295 301 317 317 319 324 321 322 324 328 328 330 330 331 330 329 332 333 333 332 333 329 327
289 293 295 298 302 301 296 291 291 297 311 312 313 319 320 320 321 325 327 327 327 327 328 330 330 330 331 330 328 328 331 329
297 301 301 301 303 304 297 298 294 298 312 315 317 320 320 321 324 325 325 327 327 327 329 330 330 331 330 330 329 325 328 327
296 304 303 301 304 304 304 305 305 315 311 317 322 322 320 323 325 325 326 327 328 329 330 331 332 330 331 331 331 330 328 327
293 301 301 296 301 303 303 311 309 301 311 321 321 322 321 323 325 325 327 327 327 328 329 332 330 328 327 329 331 329 329 328
294 295 289 300 305 308 315 316 315 315 318 320 319 317 319 326 326 328 329 328 328 330 332 332 328 326 327 327 325 325 324 324
293 291 297 301 307 309 307 312 319 313 311 315 318 316 314 322 328 330 331 331 331 332 330 328 328 328 327 325 324 323 323 323
293 290 290 301 312 316 310 303 317 314 312 315 317 304 308 319 328 329 331 331 330 331 329 328 327 327 325 323 323 322 323 322
295 296 299 310 313 315 297 301 318 318 315 316 313 312 317 319 321 320 330 332 332 330 328 327 324 323 320 317 318 320 321 322
297 294 293 313 311 308 313 316 317 318 316 316 316 319 322 319 319 321 328 328 328 325 322 322 320 318 316 316 319 319 321 320
300 299 309 313 311 315 316 318 321 321 322 318 318 321 322 320 324 328 328 327 325 323 320 319 320 319 318 316 320 319 318 318
304 307 310 313 318 318 320 318 325 325 327 325 320 319 321 325 326 325 327 323 321 321 319 317 320 321 321 319 322 319 317 317
305 309 312 315 317 319 321 322 322 320 323 324 323 322 325 323 319 316 324 321 320 320 318 318 320 320 323 325 322 319 319 319
301 310 309 311 317 324 320 319 318 314 313 317 323 325 326 325 324 323 324 321 317 318 319 319 321 321 322 325 323 319 318 319
311 317 315 318 322 324 322 320 319 314 312 312 318 321 320 321 327 325 323 319 318 319 320 321 323 323 325 325 326 320 319 318

GFSFLT2_sfc_thetae_327.txt.gz
Theta_e
319 318 311 308 303 308 301 294 297 301 306 316 315 318 324 324 322 322 332 333 334 334 334 335 335 337 339 340 337 336 337 336
313 315 313 308 309 300 295 288 285 290 300 302 312 311 317 325 320 328 332 333 332 332 332 332 335 339 339 337 336 334 334 334
302 304 296 299 296 296 295 290 288 286 291 311 315 315 313 327 330 331 330 331 331 331 331 331 332 332 333 333 331 331 332 333
295 300 301 298 296 293 290 289 288 289 295 314 313 317 323 327 329 330 330 331 331 330 330 331 331 331 331 332 331 331 331 331
293 296 298 296 297 295 291 290 289 290 295 313 321 323 325 324 325 327 328 329 330 329 328 329 331 332 332 331 330 329 330 329
290 293 294 296 300 299 294 290 291 293 299 309 315 318 320 322 324 327 328 328 327 328 328 329 330 330 330 329 330 330 329 327
295 297 297 299 301 301 298 297 293 297 300 306 312 318 319 321 324 325 326 327 327 327 328 328 329 330 329 329 326 330 328 326
295 301 301 300 302 302 300 302 298 302 304 315 320 321 320 320 322 323 324 327 327 328 328 329 329 329 329 329 328 325 326 323
292 296 298 295 299 301 300 309 308 303 308 318 318 320 320 321 323 323 324 325 327 328 330 331 330 329 329 329 329 327 327 327
292 294 289 299 306 307 313 314 314 314 318 319 317 318 319 321 322 324 325 326 326 327 327 329 326 326 325 330 327 324 323 322
293 290 295 300 306 306 305 308 318 316 314 317 318 317 317 322 327 327 328 328 327 328 330 326 325 325 325 323 322 322 321 321
291 290 289 298 309 314 312 301 317 315 313 313 313 307 311 317 327 329 332 331 330 330 328 327 325 325 323 321 321 320 321 322
293 292 297 303 312 312 296 298 316 315 315 315 310 309 313 317 320 327 328 329 330 329 328 327 326 325 321 320 320 322 322 322
294 292 293 310 309 303 308 313 318 319 318 317 317 317 319 317 317 322 327 328 329 326 325 324 324 323 319 317 320 320 320 321
299 298 305 310 308 313 314 314 317 316 317 318 319 317 317 316 316 320 326 325 326 325 322 320 319 322 317 316 317 317 317 318
303 305 307 311 314 317 317 316 321 320 319 321 320 318 319 320 320 322 324 322 322 320 319 317 317 317 317 316 318 316 315 315
303 306 310 313 314 318 319 321 322 323 323 322 323 321 320 321 322 322 324 321 320 319 318 318 317 317 319 317 318 316 315 315
303 307 308 309 314 321 319 319 319 317 317 325 323 321 322 321 321 317 320 319 317 317 316 315 317 318 318 320 320 317 315 316
308 312 313 315 319 321 321 322 323 320 318 317 323 321 323 321 321 318 318 318 316 317 318 316 317 317 319 321 324 319 319 316

GFSFLT2_sfc_thetae_333.txt.gz
Theta_e
324 323 323 316 314 316 308 305 304 307 312 314 323 324 327 328 329 332 335 336 337 338 339 342 341 342 345 344 345 346 345 343
319 322 318 317 318 307 306 298 295 301 303 305 313 320 325 327 329 331 334 333 335 337 339 340 342 344 346 347 346 343 342 340
311 314 309 311 310 307 304 303 297 295 300 311 314 322 321 324 330 331 333 332 334 335 336 338 337 343 342 343 340 340 340 342
305 306 306 307 306 306 302 300 300 299 301 314 322 322 325 325 330 334 335 332 331 332 333 333 334 336 337 339 339 340 342 340
303 305 306 306 307 305 303 303 303 299 302 315 320 321 326 325 332 330 330 331 330 331 331 331 331 334 336 338 335 335 334 334
300 304 305 305 306 307 306 303 303 303 305 311 314 316 319 326 331 330 330 331 330 331 332 332 330 329 329 330 331 331 331 331
305 305 304 306 307 307 305 307 303 305 306 310 314 316 321 324 331 332 332 329 329 330 331 331 330 331 330 330 331 331 330 329
306 308 306 303 307 307 308 307 306 307 307 316 324 326 326 326 328 330 331 328 328 329 330 330 330 330 330 330 330 332 330 327
302 304 305 302 306 308 309 310 309 306 312 321 323 326 326 326 326 328 330 330 330 330 331 332 331 331 330 333 332 330 328 328
303 304 297 307 311 313 310 312 314 318 320 323 327 328 329 330 328 328 330 333 331 333 332 333 332 333 330 331 332 331 330 328
303 302 305 308 311 314 311 311 316 318 320 325 326 326 327 329 333 333 334 333 334 336 336 336 335 334 330 330 331 330 330 330
302 300 297 308 311 316 316 306 317 321 322 324 325 320 322 324 326 332 335 337 336 337 338 337 336 335 330 332 332 331 331 332
305 302 306 311 312 317 305 308 318 321 324 324 323 325 322 326 327 330 337 337 337 338 337 337 335 336 333 333 332 334 334 333
304 302 300 315 314 310 317 322 322 323 324 325 327 323 324 325 327 333 336 337 337 336 336 337 335 334 333 332 335 334 334 333
309 308 316 317 319 322 322 322 323 324 325 326 325 324 325 325 327 334 336 338 338 337 337 335 335 334 332 334 335 334 334 333
311 316 317 319 321 322 324 324 325 325 325 325 322 322 323 325 327 330 336 336 338 337 336 335 335 334 334 335 335 335 333 334
314 316 318 319 321 323 324 325 326 327 326 326 325 324 325 326 328 329 333 336 337 337 336 336 336 335 335 335 334 332 333 332
306 316 318 319 323 323 323 324 326 324 323 325 325 324 326 326 329 331 329 334 335 336 337 338 336 335 336 336 333 331 329 328
315 321 321 323 323 324 324 325 326 326 326 325 325 325 326 328 332 328 332 333 334 335 336 336 335 336 336 336 333 331 329 327

GFSFLT2_sfc_thetae_336.txt.gz
Theta_e
329 330 328 322 316 321 309 311 306 308 310 316 322 321 326 330 333 336 340 341 343 345 345 348 346 347 348 350 351 349 352 353
324 327 326 323 323 311 312 301 298 304 306 307 313 315 320 322 327 334 340 340 342 344 344 347 348 350 347 348 349 352 351 346
319 318 314 317 315 314 310 306 301 299 304 314 314 317 318 322 328 333 338 339 341 344 345 346 346 348 351 350 351 352 346 339
311 313 313 313 311 311 305 304 307 305 304 317 317 319 320 320 330 337 340 338 339 341 343 345 340 343 346 349 349 347 348 342
307 310 312 310 312 313 311 310 305 303 305 318 318 319 321 322 330 337 337 334 337 337 342 344 337 338 341 342 343 345 346 343
303 307 311 308 310 312 311 306 307 307 309 313 316 317 321 327 330 336 335 335 338 336 335 335 334 333 334 335 338 339 339 338
311 311 311 310 309 310 309 311 307 309 309 313 317 321 327 331 333 335 331 336 337 334 333 334 332 330 331 331 331 331 330 330
310 312 311 309 311 311 311 310 310 311 311 318 324 326 328 332 332 333 333 334 336 334 334 334 335 334 331 330 330 332 331 329
306 310 310 305 308 310 311 312 312 308 314 319 321 326 332 333 332 332 333 331 331 332 332 337 337 337 335 331 332 331 331 330
307 309 299 310 316 314 313 313 315 316 318 321 327 331 333 336 334 333 334 335 334 334 338 336 337 336 339 338 335 332 333 331
305 305 309 311 314 313 312 310 316 318 321 322 326 331 328 333 335 334 337 340 339 337 341 338 335 337 335 335 334 333 331 331
309 304 300 310 315 320 318 307 321 321 321 321 324 317 323 328 330 331 337 341 340 340 340 341 339 338 336 334 334 332 332 334
308 306 309 315 317 321 306 312 322 322 324 324 322 327 331 331 331 333 337 341 342 340 338 340 340 339 334 334 334 335 336 336
309 306 302 319 318 312 320 324 323 324 326 325 328 330 332 331 331 333 338 340 341 339 337 339 340 339 335 335 336 336 335 334
311 312 322 323 322 324 325 324 325 325 326 328 327 327 328 328 329 333 338 341 341 340 338 339 340 340 336 337 337 336 334 333
314 317 319 321 323 324 326 326 327 328 328 328 327 329 329 330 331 331 338 341 342 340 339 337 340 338 337 338 337 335 333 333
316 319 320 321 321 323 325 327 328 329 328 328 331 331 331 331 333 331 337 341 342 341 341 341 340 337 335 336 337 333 333 332
309 318 316 317 322 326 326 325 327 327 327 328 329 328 329 329 334 336 335 340 342 343 341 341 341 337 336 337 337 335 332 331
316 320 320 323 324 326 325 327 328 328 328 328 330 331 330 328 333 333 338 336 340 342 343 342 341 341 338 339 338 336 333 330

GFSFLT2_sfc_thetae_339.txt.gz
Theta_e
323 324 324 319 315 322 311 313 308 311 312 316 320 320 321 322 325 329 336 339 343 346 349 351 351 352 352 349 351 352 350 350
324 323 322 320 322 311 314 304 302 306 308 311 314 316 319 320 321 327 334 340 343 347 347 349 351 352 353 353 353 354 349 352
319 318 317 317 317 316 314 309 303 302 307 316 316 318 319 320 323 329 331 339 343 346 348 349 351 352 354 354 355 353 351 349
313 319 319 315 312 313 307 306 309 307 306 319 319 319 320 321 326 331 338 341 344 344 346 348 348 350 352 356 354 354 351 349
310 314 316 312 314 315 314 312 307 304 307 320 320 320 322 323 328 332 342 341 341 343 343 343 343 343 344 348 353 353 349 347
305 309 313 310 312 314 312 308 309 309 311 316 317 318 322 325 328 333 341 337 338 340 343 344 339 339 337 339 347 350 349 344
313 314 314 312 311 312 311 311 308 310 311 314 318 322 324 327 331 334 338 337 337 338 340 339 337 334 333 332 334 339 338 337
312 315 314 311 313 313 313 313 312 312 311 319 322 324 325 328 331 332 337 337 337 339 340 338 338 334 334 332 331 332 331 331
309 314 313 308 312 313 313 314 313 309 314 319 321 326 327 327 331 332 334 339 340 339 340 341 340 337 336 334 333 332 331 332
309 312 302 313 318 316 314 315 316 316 318 322 323 327 328 330 334 333 334 338 339 340 339 341 342 341 338 337 336 335 334 334
307 307 311 312 316 316 315 314 316 317 321 322 324 325 328 335 333 332 334 338 342 342 342 343 341 342 340 337 336 336 333 331
310 305 303 314 318 321 319 308 322 322 322 322 324 317 321 333 332 333 335 339 343 343 341 343 342 340 339 337 335 332 334 335
310 307 311 319 321 321 308 312 324 323 323 323 321 324 329 335 334 335 336 339 343 343 340 341 341 341 336 336 333 336 336 336
313 309 306 322 320 314 321 325 324 324 323 324 325 326 327 332 334 333 336 340 341 341 342 343 343 340 338 335 340 340 340 339
315 314 324 325 324 325 326 324 324 325 325 325 323 325 329 330 332 333 336 341 341 342 341 342 342 341 338 339 340 338 336 335
318 320 320 321 324 326 327 325 325 327 326 326 325 326 328 331 333 335 337 340 342 341 340 338 342 341 339 341 339 337 334 333
320 323 323 322 324 325 324 327 327 328 328 326 326 328 331 334 334 336 336 341 342 341 342 341 342 341 340 340 338 333 332 331
312 320 319 320 323 323 324 326 327 327 327 328 328 329 332 332 334 336 334 341 342 342 342 342 343 340 341 341 337 334 331 330
317 321 322 323 324 326 325 326 326 327 329 327 329 331 332 332 333 333 340 340 342 342 342 342 341 342 339 342 339 337 334 331

GFSFLT2_sfc_thetae_342.txt.gz
Theta_e
325 323 322 317 313 318 311 313 307 309 313 317 320 320 320 320 322 322 332 337 338 341 348 347 350 354 355 358 358 355 354 351
323 324 322 317 322 312 311 304 301 305 308 309 315 316 320 320 320 327 329 337 339 340 344 350 352 351 354 354 354 353 352 352
319 317 316 317 313 312 313 311 304 301 306 317 317 318 318 319 323 328 330 335 338 339 345 351 352 353 356 355 356 357 357 353
312 318 320 317 313 312 305 306 308 306 305 319 320 319 320 320 329 331 334 340 342 344 346 349 350 351 354 359 355 356 355 350
308 313 317 313 314 314 313 311 307 303 306 320 321 320 322 325 327 336 342 342 342 344 344 345 347 346 346 350 354 354 352 350
303 307 312 310 312 313 311 306 306 307 310 315 317 318 322 324 328 333 341 342 339 340 345 345 340 340 339 342 343 352 348 346
312 313 313 312 312 313 311 311 307 310 310 314 318 321 324 327 329 330 332 339 339 340 342 342 341 337 336 335 336 341 341 342
311 315 315 313 314 314 313 313 312 312 311 318 322 326 326 328 327 328 330 337 340 341 342 341 339 338 335 332 332 334 335 332
309 313 312 307 312 313 314 315 313 309 314 319 322 323 325 325 326 328 332 339 341 340 341 343 341 340 336 334 332 332 332 331
308 311 302 313 319 317 314 315 316 316 316 318 323 324 325 332 333 332 332 336 340 342 342 342 343 341 340 334 333 332 331 331
307 306 310 312 316 316 315 315 320 318 321 323 325 325 327 332 333 331 331 333 338 344 343 343 343 343 339 337 335 334 332 331
311 305 301 313 318 323 320 309 322 323 322 322 323 315 319 330 329 330 333 336 338 345 343 343 345 344 340 338 337 335 334 335
310 307 310 318 322 323 309 313 324 324 324 322 319 324 327 328 329 331 336 336 345 344 341 344 343 342 338 340 337 338 339 338
313 310 307 324 321 315 323 325 323 324 323 324 325 325 326 327 332 332 333 335 342 342 342 345 345 343 340 338 341 340 339 337
317 314 327 325 324 326 326 325 324 325 324 325 324 324 325 329 332 332 333 338 342 342 341 343 346 343 339 342 343 343 340 339
321 322 322 324 327 328 327 325 326 326 325 326 325 326 326 332 332 335 337 338 341 342 341 341 342 342 343 343 343 340 338 337
320 323 324 325 325 324 324 325 324 324 326 326 328 327 329 332 338 335 340 341 338 339 341 341 345 342 342 343 342 337 336 334
312 322 321 321 323 324 322 322 324 324 325 327 327 327 329 332 336 335 336 340 343 345 343 344 345 344 341 341 341 337 333 331
319 322 322 322 324 326 324 324 325 327 327 327 330 330 329 336 335 333 337 342 343 346 339 347 344 343 345 343 340 338 334 331

GFSFLT2_sfc_thetae_348.txt.gz
Theta_e
321 320 313 305 299 305 298 296 294 296 304 313 313 313 315 314 325 325 329 334 333 337 338 340 343 344 343 341 337 341 341 340
311 316 313 307 308 300 294 291 290 295 297 301 305 307 310 314 320 324 327 330 334 337 339 340 340 339 340 339 334 336 344 342
305 303 301 304 302 298 296 294 290 289 294 304 306 308 309 314 323 327 329 332 337 339 340 341 342 342 342 341 339 342 346 342
299 305 307 306 300 296 294 293 292 292 295 308 308 309 317 318 326 330 333 333 334 336 339 339 338 339 338 337 337 340 343 345
295 298 302 301 302 305 297 294 292 292 295 313 314 316 321 329 330 331 331 331 332 333 334 335 334 332 332 334 333 334 340 342
290 294 298 301 304 304 299 293 294 294 296 310 313 319 324 328 330 330 331 330 330 331 332 332 331 330 330 330 331 332 334 341
299 301 302 303 305 306 300 300 297 300 299 310 313 315 318 325 329 331 332 330 329 330 332 330 329 329 328 327 328 328 331 340
300 308 306 305 307 307 305 304 302 303 305 313 315 315 315 318 320 324 330 333 332 332 333 332 330 328 328 326 327 328 334 334
295 302 303 298 303 306 306 307 305 300 306 313 314 316 320 321 321 322 330 332 332 332 333 333 331 330 327 326 327 330 332 332
296 298 292 303 308 310 307 312 310 311 313 315 315 320 322 320 320 320 321 327 332 333 332 333 332 330 328 327 325 328 330 330
296 294 299 306 309 308 306 307 314 314 316 318 322 320 319 324 324 321 323 322 322 326 334 333 332 330 328 327 324 325 326 327
297 294 295 304 313 315 311 301 317 316 314 314 313 305 309 321 320 319 318 323 332 335 333 332 331 330 328 326 325 324 325 326
298 297 302 310 316 315 301 303 317 316 315 313 309 311 314 318 317 318 322 326 333 334 332 333 331 331 328 327 325 327 327 327
299 298 297 316 315 307 310 314 316 315 315 313 314 316 318 317 318 320 323 328 334 332 331 333 333 331 328 327 329 329 327 327
304 302 311 317 313 316 317 315 314 314 315 315 315 315 317 317 319 319 320 323 334 332 332 334 333 332 327 330 329 328 327 325
302 305 311 312 314 318 316 314 316 317 317 317 314 317 316 317 318 319 323 329 331 331 330 330 331 333 331 330 329 327 326 326
300 304 308 312 313 314 316 317 317 319 319 317 316 315 317 318 319 320 326 329 328 327 325 326 329 332 331 332 331 328 327 326
299 305 304 309 314 317 315 315 317 317 316 317 316 316 317 318 319 323 326 328 326 325 321 321 322 330 332 332 333 330 328 326
304 307 311 312 316 318 316 318 318 317 317 318 319 319 318 318 320 324 324 324 327 327 328 326 320 327 332 332 332 331 329 327

GFSFLT2_sfc_thetae_354.txt.gz
Theta_e
315 313 312 303 298 301 293 288 290 295 300 309 312 315 316 318 321 321 326 330 332 335 334 336 336 336 334 333 333 333 336 337
306 305 304 305 304 298 293 289 288 290 294 300 307 311 313 313 317 320 328 332 333 335 335 336 338 339 339 338 336 337 337 337
300 298 297 301 299 293 293 290 288 287 292 302 304 308 312 311 314 322 327 330 332 335 337 338 339 339 338 338 338 338 338 338
297 299 300 299 298 295 294 292 288 288 292 303 309 307 308 309 316 323 329 331 333 335 337 338 337 337 337 338 338 339 338 341
297 296 298 297 299 293 293 291 290 290 295 305 312 311 309 313 321 325 330 332 333 334 335 336 336 336 336 335 335 334 333 334
294 296 295 296 300 300 297 294 293 293 297 302 304 311 314 319 324 327 330 330 330 330 332 333 334 334 334 333 332 332 331 330
296 298 297 299 301 302 298 298 296 298 296 301 304 309 315 322 326 327 327 328 328 328 329 330 332 333 332 331 330 330 329 331
297 302 299 301 304 303 301 301 299 298 298 305 306 315 320 324 325 326 326 328 329 329 330 330 332 332 331 330 329 329 328 330
295 298 299 297 300 302 302 302 302 300 305 309 313 315 318 320 322 324 325 326 328 332 332 332 332 333 331 330 329 328 328 331
293 295 290 302 304 305 303 304 305 305 306 310 314 317 317 318 318 319 322 327 329 331 332 333 333 333 332 331 328 327 327 330
294 291 297 303 305 306 303 303 309 308 309 315 320 320 318 323 323 323 324 326 327 330 332 333 332 333 331 328 327 326 327 329
292 292 292 301 309 314 309 300 311 314 312 316 317 309 314 323 325 323 323 323 323 323 323 325 329 331 329 327 326 325 327 328
294 294 298 305 311 314 300 302 311 315 315 317 314 315 314 317 319 323 323 322 320 320 326 330 331 330 329 327 326 328 328 327
294 293 294 308 311 305 309 311 314 315 315 315 316 315 316 317 318 319 320 320 322 324 327 331 331 330 330 327 331 328 327 327
300 299 306 307 311 312 312 312 313 315 316 316 315 315 316 316 316 317 318 318 320 325 328 330 331 332 330 332 329 328 327 327
300 301 302 305 307 309 311 312 314 315 316 316 314 316 316 316 316 317 318 318 320 321 324 327 330 331 332 331 330 328 327 326
296 301 303 306 307 308 311 314 314 315 316 315 316 315 315 314 315 316 317 319 320 321 324 327 331 332 334 332 330 328 328 327
297 303 301 303 307 310 313 313 314 314 315 316 316 315 316 316 316 316 317 319 319 322 324 327 331 331 333 333 330 329 328 327
304 309 308 307 309 315 315 316 317 316 317 317 320 319 319 317 318 318 319 320 320 322 324 327 330 329 330 330 330 329 328 328